| time (UTC) | temp F | wind direction | speed knots | gust knots | rain 1hr in | rain 24hr in | rain mn in | humidity % | barometer mb |
| 20260509203002 | 87 | 74 | 2.6 | 8.7 | 0.00 | 0.03 | 0.03 | 54 | 1007.1 |
| 20260509201503 | 86 | 55 | 5.2 | 12.2 | 0.00 | 0.03 | 0.03 | 52 | 1007.3 |
| 20260509200005 | 90 | 58 | 5.2 | 9.6 | 0.00 | 0.03 | 0.03 | 55 | 1007.6 |
| 20260509194502 | 88 | 20 | 1.7 | 5.2 | 0.00 | 0.03 | 0.03 | 58 | 1007.6 |
| 20260509193006 | 90 | 323 | 0.9 | 4.3 | 0.00 | 0.03 | 0.03 | 56 | 1007.5 |
| 20260509191503 | 90 | 71 | 1.7 | 6.1 | 0.00 | 0.03 | 0.03 | 56 | 1007.7 |
| 20260509190009 | 89 | 286 | 0.9 | 5.2 | 0.00 | 0.03 | 0.03 | 62 | 1007.7 |
| 20260509184502 | 89 | 101 | 0.9 | 7.0 | 0.00 | 0.03 | 0.03 | 60 | 1008.1 |
| 20260509183003 | 88 | 257 | 4.3 | 9.6 | 0.00 | 0.03 | 0.03 | 61 | 1008.4 |
| 20260509181502 | 87 | 236 | 1.7 | 8.7 | 0.00 | 0.03 | 0.03 | 65 | 1008.6 |
| 20260509180005 | 86 | 305 | 0.9 | 6.1 | 0.00 | 0.03 | 0.03 | 65 | 1008.8 |
| 20260509174506 | 86 | 284 | 0.9 | 7.8 | 0.00 | 0.03 | 0.03 | 69 | 1008.9 |
| 20260509173004 | 86 | 249 | 1.7 | 6.1 | 0.00 | 0.03 | 0.03 | 69 | 1009.3 |
| 20260509171501 | 85 | 309 | 0.9 | 4.3 | 0.00 | 0.03 | 0.03 | 72 | 1009.4 |
| 20260509170005 | 84 | 241 | 0.9 | 4.3 | 0.00 | 0.03 | 0.03 | 76 | 1009.4 |
| 20260509164503 | 82 | 250 | 1.7 | 6.1 | 0.00 | 0.03 | 0.03 | 77 | 1009.4 |
| 20260509163002 | 82 | 267 | 0.9 | 4.3 | 0.00 | 0.03 | 0.03 | 79 | 1009.6 |
| 20260509161502 | 81 | 272 | 0.9 | 7.8 | 0.00 | 0.03 | 0.03 | 82 | 1009.5 |
| 20260509160005 | 79 | 236 | 2.6 | 7.0 | 0.00 | 0.03 | 0.03 | 84 | 1009.6 |
| 20260509154502 | 78 | 194 | 1.7 | 7.0 | 0.00 | 0.03 | 0.03 | 87 | 1009.7 |
| 20260509153003 | 76 | 217 | 1.7 | 6.1 | 0.00 | 0.03 | 0.03 | 91 | 1009.7 |